[[{"header":{"parameterUnit":"m.s-1","parameterCategory":1,"la1":30.2991,"la2":30.254,"lo1":-89.0895,"lo2":-89.0444,"dy":0.0017,"dx":0.0017,"nx":28,"ny":28,"refTime":"2024-04-24T09:00:00:Z","depth":0,"parameterNumber":2,"parameterNumberName":"U-component_of_WINDS"},"data":[0,0,0,0,0,0,0,0,0,0,0,0,0,0,0,0,0,0,0,0,0,0,0,0,0,0,0,0,0,0,0,0,0,0,0,0,0,0,0,0,0,0,0,0,0,0,0,0,0,0,0,0,0,0,0,0,0,0,-0.4447,-0.4445,0,-0.432,-0.4318,-0.4317,-0.423,-0.423,-0.4229,-0.4228,-0.41,-0.4097,-0.4094,0,0,0,0,0,0,0,0,0,0,0,0,0,-0.4617,-0.4614,-0.4447,-0.4445,-0.4444,-0.432,-0.4318,-0.4316,-0.423,-0.423,-0.4229,-0.4228,-0.4101,-0.4097,-0.4094,0,0,0,0,0,0,0,0,0,0,0,0,0,-0.4522,-0.4613,-0.4447,-0.4386,-0.4379,-0.432,-0.4318,-0.4316,-0.4231,-0.423,-0.4229,-0.4228,-0.4102,-0.4097,-0.4093,-0.4086,0,0,-0.408,-0.4078,0,0,0,0,0,0,0,0,-0.4527,-0.4516,-0.4396,-0.439,-0.4382,-0.429,-0.4331,-0.4239,-0.4231,-0.4287,-0.4228,-0.4227,-0.4164,-0.4154,-0.4133,-0.408,-0.4074,-0.408,-0.4077,-0.4075,-0.4074,0,0,0,0,0,0,0,-0.4534,-0.4521,-0.4396,-0.4395,-0.4386,-0.4365,-0.4351,-0.4313,-0.4232,-0.4282,-0.4275,-0.4261,-0.416,-0.4137,-0.4129,-0.4072,-0.408,-0.4076,-0.4074,-0.4072,-0.4008,-0.4009,0,0,0,0,0,0,-0.455,-0.4527,-0.44,-0.4393,-0.4454,-0.4363,-0.4347,-0.432,-0.4232,-0.4218,-0.4262,-0.4258,-0.4145,-0.4134,-0.4124,-0.411,-0.4075,-0.4071,-0.4069,-0.4007,-0.4008,-0.4009,0,0,0,0,0,0,-0.4554,-0.454,-0.4406,-0.4458,-0.4439,-0.4361,-0.4332,-0.4318,-0.4295,-0.4218,-0.4203,-0.4254,-0.4143,-0.413,-0.4096,-0.4104,-0.407,-0.4066,-0.4006,-0.4007,-0.4009,-0.4082,0,0,0,0,0,0,-0.4559,-0.4542,-0.4537,-0.4458,-0.4437,-0.438,-0.4333,-0.4317,-0.4288,-0.4281,-0.4206,-0.4192,-0.4142,-0.4103,-0.4092,-0.4098,-0.4062,-0.4005,-0.4007,-0.4008,-0.4079,-0.4086,-0.4092,0,0,0,0,0,-0.4566,-0.4563,-0.4538,-0.4523,-0.443,-0.438,-0.4368,-0.4309,-0.4289,-0.4285,-0.4235,-0.4195,-0.4105,-0.41,-0.4087,-0.4092,-0.4004,-0.4006,-0.4008,-0.4076,-0.4084,-0.4092,0,0,0,0,0,0,-0.4646,-0.4552,-0.4522,-0.4494,-0.4446,-0.4366,-0.4358,-0.432,-0.4277,-0.4272,-0.4202,-0.4186,-0.4159,-0.4122,-0.4118,-0.4081,-0.405,-0.4049,-0.4106,-0.4114,-0.412,-0.413,-0.4059,0,0,0,0,0,-0.466,-0.4627,-0.4547,-0.453,-0.4507,-0.4437,-0.4413,-0.4372,-0.432,-0.4299,-0.4246,-0.4197,-0.4158,-0.4133,-0.4093,-0.4073,-0.4056,-0.407,-0.4076,-0.4082,-0.4083,-0.407,-0.4076,-0.4015,-0.4015,-0.4015,0,0,-0.469,-0.4634,-0.4618,-0.4545,-0.4502,-0.447,-0.4421,-0.4389,-0.4364,-0.4294,-0.4259,-0.4219,-0.4159,-0.4132,-0.4118,-0.4101,-0.4096,-0.4085,-0.409,-0.4087,-0.4073,-0.4079,-0.4084,-0.4017,-0.4016,-0.4016,0,0,-0.4727,-0.4682,-0.4663,-0.4621,-0.4558,-0.4511,-0.4507,-0.4432,-0.4403,-0.4367,-0.4313,-0.4284,-0.4218,-0.4178,-0.4149,-0.4172,-0.4134,-0.4161,-0.4196,-0.4184,-0.4189,-0.4193,-0.4202,-0.4206,-0.4161,-0.4161,-0.4162,0,-0.4772,-0.4721,-0.4658,-0.4629,-0.4599,-0.4534,-0.4515,-0.4478,-0.4405,-0.4386,-0.4367,-0.4283,-0.4238,-0.4202,-0.4208,-0.4186,-0.418,-0.4169,-0.4193,-0.4197,-0.4199,-0.4208,-0.4211,-0.4165,-0.4165,-0.4164,-0.4164,0,-0.478,-0.4746,-0.4738,-0.4669,-0.4638,-0.4614,-0.4549,-0.4525,-0.4487,-0.4443,-0.4407,-0.4351,-0.4298,-0.4287,-0.4249,-0.4245,-0.4236,-0.4207,-0.4175,-0.421,-0.4217,-0.4219,-0.4171,-0.4169,-0.4168,-0.4167,0,0,-0.4865,-0.4761,-0.476,-0.4728,-0.4653,-0.4625,-0.4599,-0.4548,-0.4529,-0.4481,-0.4458,-0.4404,-0.4376,-0.4343,-0.4301,-0.4291,-0.4314,-0.4262,-0.426,-0.4275,-0.4307,-0.4331,-0.4335,-0.4288,-0.4288,-0.4288,-0.4313,0,-0.4892,-0.4841,-0.4783,-0.4753,-0.4721,-0.4658,-0.4635,-0.4588,-0.4546,-0.4513,-0.4467,-0.443,-0.4396,-0.4376,-0.4363,-0.4314,-0.432,-0.4311,-0.4267,-0.4266,-0.4285,-0.4338,-0.4363,-0.4388,-0.4315,-0.4315,-0.4315,0,-0.4916,-0.4871,-0.4837,-0.4766,-0.475,-0.4731,-0.468,-0.4649,-0.4594,-0.4564,-0.4528,-0.4482,-0.4453,-0.4424,-0.4382,-0.4378,-0.4356,-0.433,-0.4329,-0.4324,-0.4293,-0.4335,-0.4395,-0.44,-0.4318,-0.4318,-0.4318,0,-0.4983,-0.4914,-0.4884,-0.4859,-0.4775,-0.4763,-0.4727,-0.4671,-0.4644,-0.4599,-0.4581,-0.4534,-0.4508,-0.4472,-0.4416,-0.44,-0.4381,-0.4347,-0.4356,-0.4358,-0.4356,-0.4357,-0.4414,-0.434,-0.434,-0.434,-0.434,0,-0.502,-0.5002,-0.4913,-0.4896,-0.4874,-0.4808,-0.4789,-0.4748,-0.4699,-0.4673,-0.4615,-0.4592,-0.4518,-0.4487,-0.4442,-0.4415,-0.4404,-0.438,-0.4368,-0.4385,-0.4389,-0.4371,-0.4368,-0.4341,-0.4341,-0.4341,-0.4341,0,-0.5091,-0.5031,-0.4995,-0.4918,-0.4899,-0.4886,-0.4821,-0.4802,-0.4757,-0.4724,-0.4713,-0.4643,-0.4602,-0.4542,-0.4484,-0.4454,-0.4435,-0.4415,-0.4453,-0.4447,-0.4459,-0.446,-0.4508,-0.4512,-0.4436,-0.4436,-0.4437,0,-0.5119,-0.5104,-0.5025,-0.5003,-0.497,-0.4935,-0.4907,-0.4842,-0.4815,-0.4752,-0.4741,-0.4696,-0.4657,-0.4596,-0.454,-0.4495,-0.4475,-0.4495,-0.4468,-0.4486,-0.4477,-0.4479,-0.4477,-0.4502,-0.4503,-0.4504,-0.4505,0,-0.5175,-0.5146,-0.5108,-0.5059,-0.5027,-0.4986,-0.4942,-0.4927,-0.4853,-0.4826,-0.4784,-0.4754,-0.4695,-0.4652,-0.4599,-0.4563,-0.4522,-0.4514,-0.4514,-0.4531,-0.4555,-0.4543,-0.4472,-0.4513,-0.4512,-0.4512,-0.4511,-0.4511,-0.5226,-0.521,-0.5152,-0.5112,-0.5072,-0.5032,-0.501,-0.4963,-0.4926,-0.4873,-0.4836,-0.4797,-0.4743,-0.4668,-0.4635,-0.4603,-0.4586,-0.4585,-0.4585,-0.4587,-0.4593,-0.4559,-0.4593,-0.4593,-0.4593,-0.4592,-0.4592,0,-0.5281,-0.524,-0.5203,-0.5144,-0.5112,-0.5075,-0.5025,-0.5001,-0.4967,-0.4919,-0.4882,-0.4834,-0.4792,-0.4733,-0.4687,-0.4673,-0.4653,-0.4663,-0.4664,-0.4657,-0.4611,-0.4616,-0.468,-0.468,-0.468,-0.468,-0.468,-0.468,-0.5305,-0.5276,-0.5241,-0.5192,-0.5151,-0.5112,-0.5086,-0.505,-0.5012,-0.4961,-0.4926,-0.4887,-0.4835,-0.4785,-0.4745,-0.4728,-0.4715,-0.4731,-0.4709,-0.4668,-0.466,-0.4652,-0.4657,-0.4728,-0.4728,-0.4757,-0.4758,-0.4758]},{"header":{"parameterUnit":"m.s-1","parameterCategory":1,"la1":30.2991,"la2":30.254,"lo1":-89.0895,"lo2":-89.0444,"dy":0.0017,"dx":0.0017,"nx":28,"ny":28,"refTime":"2024-04-24T09:00:00:Z","depth":0,"parameterNumber":3,"parameterNumberName":"V-component_of_WINDS"},"data":[0,0,0,0,0,0,0,0,0,0,0,0,0,0,0,0,0,0,0,0,0,0,0,0,0,0,0,0,0,0,0,0,0,0,0,0,0,0,0,0,0,0,0,0,0,0,0,0,0,0,0,0,0,0,0,0,0,0,3.6514,3.6513,0,3.648,3.6479,3.6479,3.6436,3.6435,3.6434,3.6434,3.6397,3.6397,3.6396,0,0,0,0,0,0,0,0,0,0,0,0,0,3.654,3.654,3.6514,3.6513,3.6513,3.648,3.6479,3.6479,3.6436,3.6435,3.6434,3.6433,3.6397,3.6397,3.6396,0,0,0,0,0,0,0,0,0,0,0,0,0,3.652,3.654,3.6514,3.6487,3.6485,3.648,3.6479,3.6479,3.6436,3.6435,3.6434,3.6433,3.6397,3.6397,3.6396,3.6414,0,0,3.6395,3.6395,0,0,0,0,0,0,0,0,3.6521,3.6519,3.6492,3.6489,3.6486,3.6461,3.6475,3.6457,3.6436,3.6454,3.6434,3.6432,3.6419,3.6417,3.6413,3.6412,3.6411,3.6395,3.6395,3.6394,3.6394,0,0,0,0,0,0,0,3.6522,3.652,3.65,3.6491,3.6488,3.6477,3.6473,3.6471,3.6443,3.6453,3.645,3.6446,3.6417,3.6413,3.6411,3.641,3.6395,3.6394,3.6394,3.6394,3.6423,3.6424,0,0,0,0,0,0,3.6528,3.6521,3.6501,3.6499,3.6501,3.6477,3.6473,3.647,3.6443,3.6438,3.6447,3.6444,3.6414,3.6412,3.641,3.6429,3.6394,3.6394,3.6394,3.6422,3.6423,3.6424,0,0,0,0,0,0,3.6529,3.6526,3.6503,3.6509,3.6506,3.6478,3.6475,3.647,3.6466,3.6439,3.6433,3.6448,3.6414,3.6411,3.6414,3.6427,3.6394,3.6393,3.6421,3.6422,3.6424,3.6467,0,0,0,0,0,0,3.6529,3.6527,3.6534,3.651,3.6505,3.6507,3.6476,3.647,3.6465,3.6461,3.6438,3.6433,3.6413,3.6415,3.6413,3.6426,3.6393,3.6419,3.6421,3.6423,3.6464,3.647,3.6475,0,0,0,0,0,3.6531,3.6547,3.6534,3.6532,3.6513,3.6508,3.6506,3.6482,3.6466,3.6473,3.6455,3.6434,3.6426,3.6415,3.6413,3.6426,3.6418,3.6421,3.6423,3.6462,3.6469,3.6475,0,0,0,0,0,0,3.6572,3.6543,3.6529,3.6538,3.6526,3.6501,3.6508,3.649,3.6482,3.6478,3.6448,3.6444,3.645,3.6438,3.6427,3.6442,3.6419,3.6421,3.6449,3.6456,3.6461,3.6463,3.6392,0,0,0,0,0,3.6583,3.6582,3.6556,3.6567,3.6561,3.6536,3.6533,3.6516,3.6502,3.6496,3.6479,3.6466,3.646,3.6457,3.6451,3.6463,3.6457,3.647,3.6476,3.648,3.6482,3.6487,3.6493,3.6432,3.6432,3.6432,0,0,3.6604,3.6588,3.6589,3.6575,3.6563,3.6562,3.6532,3.6532,3.6531,3.6496,3.6498,3.6485,3.6468,3.6476,3.6478,3.6466,3.6498,3.6483,3.6487,3.6486,3.6491,3.6496,3.6502,3.6434,3.6434,3.6433,0,0,3.6642,3.663,3.6638,3.6627,3.6611,3.6594,3.6596,3.6573,3.6564,3.6565,3.6539,3.6537,3.6528,3.6517,3.6511,3.6546,3.6525,3.6544,3.6571,3.6577,3.6582,3.6586,3.6598,3.6603,3.6546,3.6546,3.6547,0,3.6671,3.6669,3.6644,3.6646,3.664,3.6609,3.6617,3.6607,3.6589,3.6586,3.6573,3.6561,3.6548,3.6552,3.6561,3.6557,3.6558,3.6547,3.6583,3.6587,3.6591,3.6602,3.6607,3.6549,3.6549,3.6548,3.6548,0,3.6704,3.6703,3.6711,3.6696,3.6691,3.6696,3.6671,3.6669,3.6653,3.6637,3.6639,3.6622,3.6611,3.6611,3.6595,3.6614,3.6607,3.6589,3.6565,3.6599,3.6609,3.6614,3.6552,3.6551,3.6551,3.655,0,0,3.6768,3.6738,3.6742,3.6734,3.6714,3.6712,3.6716,3.6706,3.6705,3.6694,3.6695,3.6689,3.6672,3.6665,3.6647,3.6652,3.6681,3.6633,3.6633,3.6643,3.67,3.6714,3.6719,3.6667,3.6668,3.6669,3.6702,0,3.6802,3.6806,3.6784,3.6794,3.6793,3.6764,3.6767,3.6754,3.674,3.6736,3.672,3.6716,3.6695,3.669,3.6694,3.6677,3.6692,3.6674,3.6668,3.6668,3.6673,3.6725,3.6739,3.6771,3.6706,3.6706,3.6707,0,3.6843,3.6834,3.6844,3.6824,3.6822,3.6826,3.6815,3.6812,3.6797,3.6787,3.6779,3.6758,3.6759,3.6738,3.6739,3.6727,3.6723,3.6715,3.6715,3.6714,3.669,3.6724,3.678,3.6785,3.6713,3.6712,3.6712,0,3.6888,3.6879,3.6884,3.6878,3.6855,3.6857,3.6847,3.6832,3.6828,3.6818,3.6815,3.6806,3.6801,3.6794,3.6771,3.6757,3.6775,3.6751,3.6766,3.6766,3.677,3.677,3.6827,3.6769,3.6768,3.6768,3.6768,0,3.6928,3.6936,3.6904,3.6907,3.6914,3.6889,3.6897,3.6884,3.687,3.687,3.6844,3.6844,3.6814,3.6811,3.6793,3.6797,3.6795,3.6786,3.6781,3.6788,3.6789,3.6785,3.6782,3.677,3.6769,3.6769,3.6769,0,3.698,3.6959,3.6963,3.694,3.6934,3.6941,3.6921,3.6923,3.6907,3.6907,3.6906,3.6881,3.6876,3.6852,3.6842,3.683,3.6839,3.683,3.6844,3.6841,3.6857,3.6856,3.6913,3.6919,3.6857,3.6858,3.6858,0,3.7007,3.7012,3.699,3.6989,3.698,3.6978,3.6973,3.6948,3.6945,3.6929,3.6932,3.6925,3.6918,3.6911,3.6892,3.6884,3.6874,3.6894,3.6872,3.6879,3.6874,3.6874,3.6874,3.6899,3.69,3.69,3.6901,0,3.7058,3.7047,3.7042,3.7034,3.703,3.7022,3.7012,3.7012,3.6984,3.6982,3.6977,3.6971,3.6961,3.6954,3.6942,3.6931,3.6911,3.6908,3.6911,3.6918,3.6926,3.6922,3.6857,3.6907,3.6906,3.6906,3.6905,3.6905,3.7098,3.7101,3.7086,3.7082,3.7072,3.7064,3.7065,3.7049,3.7045,3.7035,3.702,3.7017,3.7002,3.6984,3.6975,3.6972,3.6961,3.6965,3.6966,3.6967,3.6971,3.6927,3.697,3.6969,3.6969,3.6969,3.6969,0,3.7147,3.7136,3.7133,3.712,3.7117,3.7099,3.7088,3.7086,3.7083,3.7072,3.7065,3.706,3.7053,3.7033,3.7025,3.7026,3.7016,3.7024,3.7024,3.7022,3.6982,3.698,3.7032,3.7032,3.7032,3.7032,3.7032,3.7032,3.7172,3.7177,3.7165,3.7164,3.7153,3.7151,3.7146,3.7138,3.7128,3.7123,3.7118,3.7105,3.709,3.708,3.7073,3.7067,3.7065,3.7076,3.7068,3.7031,3.7024,3.7019,3.7017,3.7076,3.7076,3.7108,3.7108,3.7109]}]]